EW1895 Weather Reports


Display with metric or nautical units.
time (UTC)temp
F
wind
direction
speed
MPH
gust
MPH
rain 1hr
in
rain 24hr
in
rain mn
in
humidity
%
barometer
mb
20260901060009 72 317 0.0 0.0 0.00 0.00 0.00 93 1018.1
20260901054509 72 317 0.0 0.0 0.00 0.00 0.00 93 1018.3
20260901053009 72 317 0.0 0.0 0.00 0.00 0.00 93 1018.4
20260901051508 73 317 0.0 0.0 0.00 0.00 0.00 93 1018.5
20260901050009 73 317 0.0 0.0 0.00 0.00 0.00 92 1018.6
20260901044508 73 317 0.0 0.0 0.00 0.00 0.00 92 1018.7
20260901043007 73 317 0.0 0.0 0.00 0.00 0.00 91 1018.7
20260901041507 74 317 0.0 0.0 0.00 0.00 0.00 91 1018.7
20260901040015 74 317 0.0 0.0 0.00 0.00 0.00 90 1018.6
20260901034506 74 317 0.0 0.0 0.00 0.00 0.00 90 1018.6
20260901033005 75 317 0.0 0.0 0.00 0.00 0.00 90 1018.5
20260901031507 75 317 0.0 0.0 0.00 0.00 0.00 89 1018.5
20260901030005 76 317 0.0 0.0 0.00 0.00 0.00 89 1018.4
20260901024509 76 317 0.0 0.0 0.00 0.00 0.00 89 1018.4
20260901023004 77 317 0.0 0.0 0.00 0.00 0.00 88 1018.3
20260901021504 77 317 0.0 0.0 0.00 0.00 0.00 88 1018.5
20260901020004 77 321 0.0 0.0 0.00 0.00 0.00 87 1018.6
20260901014503 78 321 0.0 0.0 0.00 0.00 0.00 87 1018.5
20260901013003 78 321 0.0 0.0 0.00 0.00 0.00 87 1018.4
20260901011503 79 321 0.0 0.0 0.00 0.00 0.00 86 1018.2
20260901010002 79 321 0.0 0.0 0.00 0.00 0.00 86 1018.2
20260901004505 79 348 0.0 0.0 0.00 0.00 0.00 85 1018.2
20260901003005 80 348 0.0 0.0 0.00 0.00 0.00 83 1018.3
20260901001509 81 348 0.0 0.0 0.00 0.00 0.00 82 1018.3
20260901000005 81 348 0.0 0.0 0.00 0.00 0.00 81 1018.1
20260831234501 82 348 0.0 0.0 0.00 0.00 0.00 80 1017.9
20260831233001 82 348 0.0 0.0 0.00 0.00 0.00 79 1018.0
20260831231602 83 348 0.0 0.0 0.00 0.00 0.00 77 1018.1
20260831224602 84 348 0.0 0.0 0.00 0.00 0.00 75 1017.9
20260831223103 85 348 0.0 0.0 0.00 0.00 0.00 74 1018.0
20260831221600 85 348 0.0 0.0 0.00 0.00 0.00 71 1018.0
20260831220104 87 348 0.0 0.0 0.00 0.00 0.00 69 1018.0
20260831214624 87 348 0.0 1.0 0.00 0.00 0.00 67 1017.9
20260831213059 88 348 0.0 0.0 0.00 0.00 0.00 63 1017.8
20260831211559 90 348 0.0 3.0 0.00 0.00 0.00 59 1017.6
20260831210058 92 26 0.0 1.0 0.00 0.00 0.00 54 1017.8
20260831204602 93 26 0.0 0.0 0.00 0.00 0.00 55 1017.8
20260831203058 93 26 0.0 0.0 0.00 0.00 0.00 51 1017.8
20260831201554 94 26 0.0 1.0 0.00 0.00 0.00 50 1017.8
20260831200053 94 350 0.0 1.0 0.00 0.00 0.00 51 1017.9
20260831194551 94 63 0.0 0.0 0.00 0.00 0.00 50 1018.1
20260831193052 94 60 0.0 0.0 0.00 0.00 0.00 53 1018.1
20260831191548 93 61 0.0 0.0 0.00 0.00 0.00 54 1018.2
20260831190110 94 61 0.0 1.0 0.00 0.00 0.00 54 1018.4
20260831184549 93 57 0.0 0.0 0.00 0.00 0.00 57 1018.7
20260831183057 92 51 0.0 1.0 0.00 0.00 0.00 57 1018.6
20260831181545 92 95 0.0 2.0 0.00 0.00 0.00 57 1018.8
20260831180043 93 65 0.0 3.0 0.00 0.00 0.00 55 1018.8
20260831174541 92 69 0.0 1.0 0.00 0.00 0.00 57 1018.9
20260831173040 92 108 0.0 4.0 0.00 0.00 0.00 58 1019.0
20260831171542 92 242 0.0 4.0 0.00 0.00 0.00 54 1019.1
20260831170038 92 240 0.0 1.0 0.00 0.00 0.00 58 1019.1
20260831164536 92 297 0.0 2.0 0.00 0.00 0.00 56 1019.3
20260831163041 91 163 0.0 2.0 0.00 0.00 0.00 57 1019.4
20260831161533 91 163 0.0 0.0 0.00 0.00 0.00 61 1019.6
20260831160038 89 167 0.0 5.0 0.00 0.00 0.00 62 1019.6
20260831154523 89 61 0.0 0.0 0.00 0.00 0.00 62 1019.6
20260831153021 88 319 0.0 3.0 0.00 0.00 0.00 65 1019.5
20260831151523 87 319 0.0 2.0 0.00 0.00 0.00 65 1019.5
20260831150022 86 319 0.0 4.0 0.00 0.00 0.00 69 1019.5
20260831144520 85 319 1.0 4.0 0.00 0.00 0.00 71 1019.5
20260831143012 84 279 0.0 0.0 0.00 0.00 0.00 72 1019.5
20260831141507 83 194 0.0 0.0 0.00 0.00 0.00 75 1019.6
20260831140003 81 194 0.0 0.0 0.00 0.00 0.00 79 1019.6
20260831134603 79 194 0.0 0.0 0.00 0.00 0.00 82 1019.7
20260831133055 77 194 0.0 0.0 0.00 0.00 0.00 89 1019.8
20260831131556 74 194 0.0 0.0 0.00 0.00 0.00 93 1019.6
20260831130054 73 194 0.0 0.0 0.00 0.00 0.00 94 1019.7
20260831124550 72 194 0.0 0.0 0.00 0.00 0.00 95 1019.6
20260831123043 72 194 0.0 0.0 0.00 0.00 0.00 95 1019.6
20260831121541 71 194 0.0 0.0 0.00 0.00 0.00 95 1019.5
20260831120052 70 194 0.0 0.0 0.00 0.00 0.00 95 1019.5
20260831114539 70 194 0.0 0.0 0.00 0.00 0.00 95 1019.4
20260831113038 69 194 0.0 0.0 0.00 0.00 0.00 95 1019.1
20260831111537 69 194 0.0 0.0 0.00 0.00 0.00 95 1019.1
20260831110034 69 194 0.0 0.0 0.00 0.00 0.00 94 1018.8
20260831104533 70 194 0.0 0.0 0.00 0.00 0.00 95 1018.7
20260831103032 70 194 0.0 0.0 0.00 0.00 0.00 94 1018.7
20260831101532 70 194 0.0 0.0 0.00 0.00 0.00 94 1018.7
20260831100031 70 194 0.0 0.0 0.00 0.00 0.00 94 1018.6
20260831094531 70 194 0.0 0.0 0.00 0.00 0.00 94 1018.4
20260831093028 70 194 0.0 0.0 0.00 0.00 0.00 94 1018.4
20260831091528 70 194 0.0 0.0 0.00 0.00 0.00 94 1018.5
20260831090030 70 194 0.0 0.0 0.00 0.00 0.00 94 1018.5
20260831084532 70 194 0.0 0.0 0.00 0.00 0.00 94 1018.5
20260831083027 70 194 0.0 0.0 0.00 0.00 0.00 93 1018.6
20260831081526 71 194 0.0 0.0 0.00 0.00 0.00 93 1018.4
20260831080033 71 194 0.0 0.0 0.00 0.00 0.00 93 1018.4
20260831074524 71 194 0.0 0.0 0.00 0.00 0.00 93 1018.5
20260831073023 71 194 0.0 0.0 0.00 0.00 0.00 92 1018.4
20260831071522 72 194 0.0 0.0 0.00 0.00 0.00 92 1018.4
20260831070020 72 194 0.0 0.0 0.00 0.00 0.00 92 1018.5
20260831064519 72 194 0.0 0.0 0.00 0.00 0.00 92 1018.7
20260831063016 72 194 0.0 0.0 0.00 0.00 0.00 92 1018.7
20260831061516 72 194 0.0 0.0 0.00 0.00 0.00 92 1018.7